BEIDOU-3 M21 (44793 NORAD) Tracking and Keplerian Element Data

This shows tracking and keplerian element data for the satellite.

Feedback or suggestion? Click here.




ElementValue
Catalog44793
NameBEIDOU-3 M21
Epoch Orbit243
Epoch Day93.37493943
Epoch Year2020
RAAN18.3553
Inclination55.0368
Eccentricity0.00077
Argument of Perigee346.2081
Mean Anonmoly213.1018
Mean Motion1.86232582
Decay Rate-7.9E-07
L11 44793U 19078A 20093.37493943 -.00000079 00000-0 10000-3 0 9999
L22 44793 55.0368 18.3553 0007700 346.2081 213.1018 1.86232582 2431

Live tracking and technical data element details for BEIDOU-3 M21 (NORAD 44793). BEIDOU-3 M21 can be tracked NOW for your location showing map with azimuth and elevation plus other details from your city location.

Track the satellite on the map from your city or location and see movement details for azimuth, elevation, latitude, longitude, range, height, and movement on the map or in text.







IsCatalogInMostPopularTable: catalog: 44793, numindb: 47
Update: records affected: 1



GetName: 44793 BEIDOU-3 M21

Hit Count: updated at: Sun, 05 Apr 2020 18:31:57 GMT